Time,TemperatureF,DewpointF,PressureIn,WindDirection,WindDirectionDegrees,WindSpeedMPH,WindSpeedGustMPH,Humidity,HourlyPrecipIn,Conditions,Clouds,dailyrainin,SolarRadiationWatts/m^2,SoftwareType,DateUTC
2013-10-05 00:04:00,77.0,76.0,-100.00,ESE,109,3.0,7.0,97,0.00,,,0.00,11.000000,,2013-10-05 05:04:00,
2013-10-05 00:13:00,77.0,76.0,-100.00,ESE,109,3.0,7.0,97,0.00,,,0.00,11.000000,,2013-10-05 05:13:00,
2013-10-05 00:22:00,77.0,76.0,-100.00,ESE,109,3.0,7.0,97,0.00,,,0.00,11.000000,,2013-10-05 05:22:00,
2013-10-05 00:52:00,77.0,76.0,-100.00,East,91,2.0,5.0,97,0.00,,,0.00,11.000000,,2013-10-05 05:52:00,
2013-10-05 01:02:00,77.0,76.0,-100.00,East,91,2.0,5.0,97,0.00,,,0.00,11.000000,,2013-10-05 06:02:00,
2013-10-05 01:12:00,77.0,76.0,-100.00,East,91,2.0,5.0,97,0.00,,,0.00,11.000000,,2013-10-05 06:12:00,
2013-10-05 01:22:00,77.0,76.0,-100.00,East,91,2.0,5.0,97,0.00,,,0.00,11.000000,,2013-10-05 06:22:00,
2013-10-05 01:52:00,75.0,74.0,-100.00,NNW,334,0.0,4.0,98,0.00,,,0.00,11.000000,,2013-10-05 06:52:00,
2013-10-05 02:02:00,75.0,74.0,-100.00,NNW,334,0.0,4.0,98,0.00,,,0.00,11.000000,,2013-10-05 07:02:00,
2013-10-05 02:12:00,75.0,74.0,-100.00,NNW,334,0.0,4.0,98,0.00,,,0.00,11.000000,,2013-10-05 07:12:00,
2013-10-05 02:22:00,75.0,74.0,-100.00,NNW,334,0.0,4.0,98,0.00,,,0.00,11.000000,,2013-10-05 07:22:00,
2013-10-05 02:52:00,73.0,73.0,-100.00,ENE,77,0.0,2.0,99,0.00,,,0.00,11.000000,,2013-10-05 07:52:00,
2013-10-05 03:02:00,73.0,73.0,-100.00,ENE,77,0.0,2.0,99,0.00,,,0.00,11.000000,,2013-10-05 08:02:00,
2013-10-05 03:12:00,73.0,73.0,-100.00,ENE,77,0.0,2.0,99,0.00,,,0.00,11.000000,,2013-10-05 08:12:00,
2013-10-05 03:23:00,73.0,73.0,-100.00,ENE,77,0.0,2.0,99,0.00,,,0.00,11.000000,,2013-10-05 08:23:00,
2013-10-05 03:52:00,73.0,73.0,-100.00,NNW,345,0.0,2.0,99,0.00,,,0.00,11.000000,,2013-10-05 08:52:00,
2013-10-05 04:02:00,73.0,73.0,-100.00,NNW,345,0.0,2.0,99,0.00,,,0.00,11.000000,,2013-10-05 09:02:00,
2013-10-05 04:11:00,73.0,73.0,-100.00,NNW,345,0.0,2.0,99,0.00,,,0.00,11.000000,,2013-10-05 09:11:00,
2013-10-05 04:22:00,73.0,73.0,-100.00,NNW,345,0.0,2.0,99,0.00,,,0.00,11.000000,,2013-10-05 09:22:00,
2013-10-05 04:54:00,73.0,73.0,-100.00,NNE,17,1.0,2.0,100,0.00,,,0.00,11.000000,,2013-10-05 09:54:00,
2013-10-05 05:03:00,73.0,73.0,-100.00,NNE,17,1.0,2.0,100,0.00,,,0.00,11.000000,,2013-10-05 10:03:00,
2013-10-05 05:12:00,73.0,73.0,-100.00,NNE,17,1.0,2.0,100,0.00,,,0.00,11.000000,,2013-10-05 10:12:00,
2013-10-05 05:23:00,73.0,73.0,-100.00,NNE,17,1.0,2.0,100,0.00,,,0.00,11.000000,,2013-10-05 10:23:00,
2013-10-05 05:54:00,73.0,73.0,-100.00,ENE,64,0.0,2.0,100,0.00,,,0.00,11.000000,,2013-10-05 10:54:00,
2013-10-05 06:02:00,73.0,73.0,-100.00,ENE,64,0.0,2.0,100,0.00,,,0.00,11.000000,,2013-10-05 11:02:00,
2013-10-05 06:11:00,73.0,73.0,-100.00,ENE,64,0.0,2.0,100,0.00,,,0.00,11.000000,,2013-10-05 11:11:00,
2013-10-05 06:22:00,73.0,73.0,-100.00,ENE,64,0.0,2.0,100,0.00,,,0.00,11.000000,,2013-10-05 11:22:00,
2013-10-05 06:52:00,73.0,73.0,-100.00,WNW,286,0.0,2.0,100,0.00,,,0.00,11.000000,,2013-10-05 11:52:00,
2013-10-05 07:01:00,73.0,73.0,-100.00,WNW,286,0.0,2.0,100,0.00,,,0.00,11.000000,,2013-10-05 12:01:00,
2013-10-05 07:12:00,73.0,73.0,-100.00,WNW,286,0.0,2.0,100,0.00,,,0.00,11.000000,,2013-10-05 12:12:00,
2013-10-05 07:22:00,73.0,73.0,-100.00,WNW,286,0.0,2.0,100,0.00,,,0.00,11.000000,,2013-10-05 12:22:00,
2013-10-05 07:53:00,73.0,73.0,-100.00,East,85,1.0,3.0,100,0.00,,,0.00,13.000000,,2013-10-05 12:53:00,
2013-10-05 08:02:00,73.0,73.0,-100.00,East,85,1.0,3.0,100,0.00,,,0.00,13.000000,,2013-10-05 13:02:00,
2013-10-05 08:12:00,73.0,73.0,-100.00,East,85,1.0,3.0,100,0.00,,,0.00,13.000000,,2013-10-05 13:12:00,
2013-10-05 08:22:00,73.0,73.0,-100.00,East,85,1.0,3.0,100,0.00,,,0.00,13.000000,,2013-10-05 13:22:00,
2013-10-05 08:52:00,81.0,77.0,-100.00,East,94,4.0,9.0,87,0.00,,,0.00,189.000000,,2013-10-05 13:52:00,
2013-10-05 09:02:00,81.0,77.0,-100.00,East,94,4.0,9.0,87,0.00,,,0.00,189.000000,,2013-10-05 14:02:00,
2013-10-05 09:12:00,81.0,77.0,-100.00,East,94,4.0,9.0,87,0.00,,,0.00,189.000000,,2013-10-05 14:12:00,
2013-10-05 09:22:00,81.0,77.0,-100.00,East,94,4.0,9.0,87,0.00,,,0.00,189.000000,,2013-10-05 14:22:00,
2013-10-05 09:52:00,85.0,76.0,-100.00,ESE,122,8.0,14.0,74,0.00,,,0.00,427.000000,,2013-10-05 14:52:00,
2013-10-05 10:02:00,85.0,76.0,-100.00,ESE,122,8.0,14.0,74,0.00,,,0.00,427.000000,,2013-10-05 15:02:00,
2013-10-05 10:12:00,85.0,76.0,-100.00,ESE,122,8.0,14.0,74,0.00,,,0.00,427.000000,,2013-10-05 15:12:00,
2013-10-05 10:22:00,85.0,76.0,-100.00,ESE,122,8.0,14.0,74,0.00,,,0.00,427.000000,,2013-10-05 15:22:00,
2013-10-05 10:54:00,86.0,74.0,-100.00,SE,133,9.0,19.0,67,0.00,,,0.00,607.000000,,2013-10-05 15:54:00,
2013-10-05 11:04:00,86.0,74.0,-100.00,SE,133,9.0,19.0,67,0.00,,,0.00,607.000000,,2013-10-05 16:04:00,
2013-10-05 11:13:00,86.0,74.0,-100.00,SE,133,9.0,19.0,67,0.00,,,0.00,607.000000,,2013-10-05 16:13:00,
2013-10-05 11:23:00,86.0,74.0,-100.00,SE,133,9.0,19.0,67,0.00,,,0.00,607.000000,,2013-10-05 16:23:00,
2013-10-05 11:53:00,82.0,75.0,-100.00,SE,140,7.0,22.0,79,0.00,,,-99.99,559.000000,,2013-10-05 16:53:00,
2013-10-05 12:03:00,82.0,75.0,-100.00,SE,140,7.0,22.0,79,0.00,,,-99.99,559.000000,,2013-10-05 17:03:00,
2013-10-05 12:12:00,82.0,75.0,-100.00,SE,140,7.0,22.0,79,0.00,,,-99.99,559.000000,,2013-10-05 17:12:00,
2013-10-05 12:22:00,82.0,75.0,-100.00,SE,140,7.0,22.0,79,0.00,,,-99.99,559.000000,,2013-10-05 17:22:00,
2013-10-05 12:53:00,87.0,74.0,-100.00,SE,132,9.0,19.0,66,0.00,,,0.00,689.000000,,2013-10-05 17:53:00,
2013-10-05 13:02:00,87.0,74.0,-100.00,SE,132,9.0,19.0,66,0.00,,,0.00,689.000000,,2013-10-05 18:02:00,
2013-10-05 13:12:00,87.0,74.0,-100.00,SE,132,9.0,19.0,66,0.00,,,0.00,689.000000,,2013-10-05 18:12:00,
2013-10-05 13:22:00,87.0,74.0,-100.00,SE,132,9.0,19.0,66,0.00,,,0.00,689.000000,,2013-10-05 18:22:00,
2013-10-05 13:52:00,87.0,74.0,-100.00,SSE,154,8.0,17.0,65,0.00,,,0.00,853.000000,,2013-10-05 18:52:00,
2013-10-05 14:02:00,87.0,74.0,-100.00,SSE,154,8.0,17.0,65,0.00,,,0.00,853.000000,,2013-10-05 19:02:00,
2013-10-05 14:11:00,87.0,74.0,-100.00,SSE,154,8.0,17.0,65,0.00,,,0.00,853.000000,,2013-10-05 19:11:00,
2013-10-05 14:22:00,87.0,74.0,-100.00,SSE,154,8.0,17.0,65,0.00,,,0.00,853.000000,,2013-10-05 19:22:00,
2013-10-05 14:52:00,87.0,73.0,-100.00,SE,125,9.0,17.0,64,0.00,,,0.00,883.000000,,2013-10-05 19:52:00,
2013-10-05 15:02:00,87.0,73.0,-100.00,SE,125,9.0,17.0,64,0.00,,,0.00,883.000000,,2013-10-05 20:02:00,
2013-10-05 15:11:00,87.0,73.0,-100.00,SE,125,9.0,17.0,64,0.00,,,0.00,883.000000,,2013-10-05 20:11:00,
2013-10-05 15:22:00,87.0,73.0,-100.00,SE,125,9.0,17.0,64,0.00,,,0.00,883.000000,,2013-10-05 20:22:00,
2013-10-05 15:52:00,87.0,74.0,-100.00,SE,134,8.0,18.0,66,0.00,,,0.00,707.000000,,2013-10-05 20:52:00,
2013-10-05 16:01:00,87.0,74.0,-100.00,SE,134,8.0,18.0,66,0.00,,,0.00,707.000000,,2013-10-05 21:01:00,
2013-10-05 16:12:00,87.0,74.0,-100.00,SE,134,8.0,18.0,66,0.00,,,0.00,707.000000,,2013-10-05 21:12:00,
2013-10-05 16:22:00,87.0,74.0,-100.00,SE,134,8.0,18.0,66,0.00,,,0.00,707.000000,,2013-10-05 21:22:00,
2013-10-05 16:54:00,85.0,74.0,-100.00,SE,126,8.0,17.0,69,0.00,,,0.00,543.000000,,2013-10-05 21:54:00,
2013-10-05 17:04:00,85.0,74.0,-100.00,SE,126,8.0,17.0,69,0.00,,,0.00,543.000000,,2013-10-05 22:04:00,
2013-10-05 17:13:00,85.0,74.0,-100.00,SE,126,8.0,17.0,69,0.00,,,0.00,543.000000,,2013-10-05 22:13:00,
2013-10-05 17:24:00,85.0,74.0,-100.00,SE,126,8.0,17.0,69,0.00,,,0.00,543.000000,,2013-10-05 22:24:00,
2013-10-05 17:53:00,84.0,74.0,-100.00,SE,130,7.0,15.0,71,0.00,,,0.00,309.000000,,2013-10-05 22:53:00,
2013-10-05 18:02:00,84.0,74.0,-100.00,SE,130,7.0,15.0,71,0.00,,,0.00,309.000000,,2013-10-05 23:02:00,
2013-10-05 18:13:00,84.0,74.0,-100.00,SE,130,7.0,15.0,71,0.00,,,0.00,309.000000,,2013-10-05 23:13:00,
2013-10-05 18:22:00,84.0,74.0,-100.00,SE,130,7.0,15.0,71,0.00,,,0.00,309.000000,,2013-10-05 23:22:00,
2013-10-05 18:53:00,81.0,74.0,-100.00,SSE,163,7.0,15.0,79,0.00,,,0.00,83.000000,,2013-10-05 23:53:00,
2013-10-05 19:02:00,81.0,74.0,-100.00,SSE,163,7.0,15.0,79,0.00,,,0.00,83.000000,,2013-10-06 00:02:00,
2013-10-05 19:12:00,81.0,74.0,-100.00,SSE,163,7.0,15.0,79,0.00,,,0.00,83.000000,,2013-10-06 00:12:00,
2013-10-05 19:23:00,81.0,74.0,-100.00,SSE,163,7.0,15.0,79,0.00,,,0.00,83.000000,,2013-10-06 00:23:00,
2013-10-05 19:52:00,79.0,73.0,-100.00,South,171,4.0,11.0,82,0.00,,,0.00,11.000000,,2013-10-06 00:52:00,
2013-10-05 20:02:00,79.0,73.0,-100.00,South,171,4.0,11.0,82,0.00,,,0.00,11.000000,,2013-10-06 01:02:00,
2013-10-05 20:11:00,79.0,73.0,-100.00,South,171,4.0,11.0,82,0.00,,,0.00,11.000000,,2013-10-06 01:11:00,
2013-10-05 20:22:00,79.0,73.0,-100.00,South,171,4.0,11.0,82,0.00,,,0.00,11.000000,,2013-10-06 01:22:00,
2013-10-05 20:52:00,79.0,74.0,-100.00,South,179,5.0,11.0,84,0.00,,,0.00,11.000000,,2013-10-06 01:52:00,
2013-10-05 21:02:00,79.0,74.0,-100.00,South,179,5.0,11.0,84,0.00,,,0.00,11.000000,,2013-10-06 02:02:00,
2013-10-05 21:12:00,79.0,74.0,-100.00,South,179,5.0,11.0,84,0.00,,,0.00,11.000000,,2013-10-06 02:12:00,
2013-10-05 21:22:00,79.0,74.0,-100.00,South,179,5.0,11.0,84,0.00,,,0.00,11.000000,,2013-10-06 02:22:00,
2013-10-05 21:53:00,78.0,73.0,-100.00,SE,144,3.0,8.0,84,0.00,,,0.00,11.000000,,2013-10-06 02:53:00,
2013-10-05 22:02:00,78.0,73.0,-100.00,SE,144,3.0,8.0,84,0.00,,,0.00,11.000000,,2013-10-06 03:02:00,
2013-10-05 22:12:00,78.0,73.0,-100.00,SE,144,3.0,8.0,84,0.00,,,0.00,11.000000,,2013-10-06 03:12:00,
2013-10-05 22:22:00,78.0,73.0,-100.00,SE,144,3.0,8.0,84,0.00,,,0.00,11.000000,,2013-10-06 03:22:00,
2013-10-05 22:54:00,78.0,72.0,-100.00,SSE,155,4.0,9.0,82,0.00,,,0.00,11.000000,,2013-10-06 03:54:00,
2013-10-05 23:13:00,78.0,72.0,-100.00,SSE,155,4.0,9.0,82,0.00,,,0.00,11.000000,,2013-10-06 04:13:00,
2013-10-05 23:24:00,78.0,72.0,-100.00,SSE,155,4.0,9.0,82,0.00,,,0.00,11.000000,,2013-10-06 04:24:00,
2013-10-05 23:54:00,79.0,72.0,-100.00,SSE,159,4.0,10.0,79,0.00,,,0.00,11.000000,,2013-10-06 04:54:00,